EUTELSAT 53A

Last updated on Tue Sep 22 2026 00:03:13 GMT+0000 (Coordinated Universal Time)

1 40277U 14064A 26264.66841611 .00000000 00000+0 00000+0 0 9996 2 40277 0.0234 179.6744 0002063 11.0707 103.4253 1.00269707 42530
UTC large
Height (km)
Speed (km/s)
/
Latitude / Longitude
Inclination (degrees)
Orbital Period (minutes)
Azimuth
Elevation
Range (km)
Doppler Factor

Next 0 passes for location: London (51.5072 / 0.1276)

No passes found over London.
EUTELSAT 53A